Other Surface Observations
Issued by NWS Jacksonville, FL

Home | Current Version | Previous Version | Text Only | Print | Product List | Glossary On
Versions: 1 2 3 4 5 6 7 8 9 10 11 12 13 14 15 16 17 18 19 20 21 22 23 24 25 26 27 28 29 30 31 32 33 34 35 36 37 38 39 40 41 42 43 44 45 46 47 48 49 50
000
SXUS52 KJAX 301810
OSOJAX
OTHER SURFACE OBSERVATIONS
NATIONAL WEATHER SERVICE JACKSONVILLE FL
200 PM EDT TUE SEP 30 2014

FLZ020>025-030>033-035>038-040-301900-
...FLORIDA...

CITY           SKY/WX    TMP DP  RH WIND       PRES   REMARKS
CECIL FIELD    CLOUDY    75  72  88 N8        29.87F
HERLONG FIELD  NOT AVBL
FERNANDINA BCH NOT AVBL
LAKE CITY      CLOUDY    73  70  88 NE6       29.88F
JUNIPER SPGS   NOT AVBL
BUNNELL        MOCLDY    79  72  78 NW7       29.83F
KEYSTONE HGTS    N/A     79  73  83 N6        29.86F
$$

GAZ132>136-149>154-162>166-301900-
...GEORGIA...

CITY           SKY/WX    TMP DP  RH WIND       PRES   REMARKS
JESUP          MOCLDY    81  72  74 CALM      29.89F
HOMERVILLE     CLOUDY    79  72  78 CALM      29.89F
SWAINSBORO     MOCLDY    81  68  65 N5        29.91F
CORDELE        NOT AVBL
$$

PLEASE NOTE:  THESE OBSERVATIONS ARE NOT QUALITY CONTROLLED AND MAY
NOT BE AVAILABLE AT ALL TIMES.
$$


USA.gov is the U.S. government's official web portal to all federal, state and local government web resources and services.